Flag for Germany Weather past 2 weeks in Nuremberg, Bavaria, Germany

Now
59 °F

Broken clouds.


Feels Like: 57 °F
Forecast: 43 / 70 °F
Wind: 9 mph from Northwest

Location: Nuernberg

Current Time: May 30, 2015 at 8:39:40 PM

Latest Report: May 30, 2015 at 8:20 PM


Visibility: N/A

Pressure: 30.04 "Hg

Humidity: 48%

Dew point: 39 °F

Location of NurembergLocation

Historic Weather in Nuremberg — Graph

°F

Nuremberg temperature yesterday

Maximum temperature yesterday: 66 °F (at 1:50 PM)
Minimum temperature yesterday: 52 °F (at 3:50 AM)
Average temperature yesterday: 59 °F

Past Weeks' High & Low Weather Summary

 TemperatureHumidityPressure
High73 °F (May 18, 3:50 PM)100% (May 21, 2:20 AM)30.33 "Hg (May 21, 2:20 AM)
Low37 °F (May 22, 4:50 AM)27% (May 18, 6:20 PM)29.71 "Hg (May 18, 7:20 PM)
Average55 °F66%30.05 "Hg
* Reported May 15 7:20 PM — May 30 7:20 PM, Nuremberg, Weather by CustomWeather, © 2015

Note: Actual official high and low records may vary slightly from our data, if they occured in-between our weather recording intervals... More about our weather records

Advertising

Nuremberg weather history for previous 24 hours

 ConditionsComfort  
Time TempWeatherWind HumidityBarometerVisibility
7:20 PM
Sat, May 30
61 °FBroken clouds.14 mph48%30.01 "HgN/A
6:50 PM61 °FBroken clouds.13 mph52%30.01 "HgN/A
6:20 PM61 °FBroken clouds.18 mph48%30.01 "HgN/A
5:50 PM61 °FBroken clouds.20 mph48%30.01 "HgN/A
5:20 PM61 °FPartly sunny.21 mph52%30.01 "HgN/A
4:50 PM61 °FPartly sunny.15 mph55%30.01 "HgN/A
4:20 PM61 °FBroken clouds.18 mph59%30.01 "HgN/A
3:50 PM59 °FBroken clouds.16 mph63%30.01 "HgN/A
3:20 PM57 °FBroken clouds.15 mph67%30.01 "HgN/A
2:50 PM59 °FBroken clouds.16 mph59%29.98 "HgN/A
2:20 PM59 °FBroken clouds.16 mph63%29.98 "HgN/A
1:50 PM59 °FBroken clouds.12 mph59%29.98 "HgN/A
1:20 PM57 °FPartly sunny.12 mph72%29.98 "HgN/A
12:50 PM55 °FPartly sunny.14 mph72%29.98 "HgN/A
12:20 PM55 °FPartly sunny.14 mph72%29.98 "HgN/A
11:50 AM55 °FPartly sunny.14 mph72%29.98 "HgN/A
11:20 AM54 °FBroken clouds.13 mph82%29.98 "HgN/A
10:50 AM54 °FPartly sunny.13 mph82%29.98 "HgN/A
10:20 AM54 °FPartly sunny.14 mph82%29.95 "HgN/A
9:50 AM54 °FLight rain. Partly sunny.12 mph88%29.95 "HgN/A
9:20 AM54 °FLight rain. Partly sunny.5 mph88%29.95 "HgN/A
8:50 AM52 °FRain. Partly sunny.13 mph88%29.95 "Hg6 mi
8:20 AM54 °FLight rain. Broken clouds.13 mph88%29.92 "HgN/A
7:50 AM54 °FLight rain. Partly sunny.13 mph88%29.92 "HgN/A
7:20 AM54 °FLight rain. Partly sunny.6 mph88%29.92 "HgN/A
6:50 AM54 °FLight rain. Partly sunny.12 mph88%29.89 "HgN/A
6:20 AM54 °FLight rain. Partly sunny.12 mph88%29.89 "Hg6 mi
5:50 AM55 °FPassing clouds.6 mph77%29.89 "HgN/A
5:20 AM55 °FPassing clouds.6 mph82%29.89 "HgN/A
4:50 AM55 °FPassing clouds.8 mph82%29.89 "HgN/A
4:20 AM55 °FPassing clouds.7 mph82%29.89 "HgN/A
3:50 AM54 °FClear.7 mph88%29.89 "Hg10 mi
3:20 AM54 °FClear.6 mph88%29.89 "Hg10 mi
2:50 AM55 °FPassing clouds.5 mph82%29.89 "HgN/A
2:20 AM55 °FClear.6 mph82%29.89 "Hg10 mi
1:50 AM55 °FPassing clouds.6 mph82%29.89 "HgN/A
1:20 AM55 °FClear.8 mph82%29.89 "Hg10 mi
12:50 AM55 °FClear.8 mph82%29.89 "Hg10 mi
12:20 AM55 °FPassing clouds.5 mph88%29.89 "HgN/A
11:50 PM
Fri, May 29
57 °FPartly cloudy.6 mph88%29.89 "HgN/A
11:20 PM57 °FPartly cloudy.1 mph88%29.86 "HgN/A
10:20 PM57 °FClear.5 mph88%29.86 "Hg10 mi
9:50 PM55 °FSprinkles. Partly sunny.2 mph94%29.86 "HgN/A
9:20 PM55 °FFog.2 mph94%29.86 "HgN/A
8:50 PM55 °FScattered clouds.1 mph94%29.83 "HgN/A
8:20 PM55 °FPartly sunny.2 mph94%29.83 "HgN/A
Weather by CustomWeather, © 2015

See weather overviewHow to use our weather pages